Tracking 20753 objects as of 7-Jun-2020
HD Live streaming from Space Station
objects crossing your sky now
Track the most recent launched group of Starlink satellites

COSMOS 1300

Track COSMOS 1300 now!
10-day predictions
COSMOS 1300 is classified as:


NORAD ID: 12785
Int'l Code: 1981-082A
Perigee: 518.0 km
Apogee: 521.9 km
Inclination: 82.5 °
Period: 94.9 minutes
Semi major axis: 6890 km
RCS: 5.912 m2 (large)
Launch date: August 24, 1981
Source: Commonwealth of Independent States (former USSR) (CIS)
Launch site: PLESETSK MISSILE AND SPACE COMPLEX (PKMTR)
aabbcc
Your satellite tracking list
Your tracking list is empty




NASA's NSSDC Master Catalog

Two Line Element Set (TLE):
1 12785U 81082A   20158.80394852 +.00000567 +00000-0 +26541-4 0  9997
2 12785 082.5045 079.1459 0002803 081.4245 330.9083 15.17696764116467
Source of the keplerian elements: AFSPC